Location: Unspecified
(0.0000°N, 0.0000°E)
Time: 16:07:37
(UTC+00:00)

Transit 2A Rocket - All Passes

Search period start: 31 October 2014 00:00
Search period end: 10 November 2014 00:00
Orbit: 590 x 918 km, 66.7° (Epoch: 31 October)

Date Brightness Start Highest point End Pass type
(mag) Time Alt. Az. Time Alt. Az. Time Alt. Az.
31 Oct - 00:48:01 10° NE 00:50:51 14° ENE 00:53:42 10° E night (unlit)
31 Oct - 02:27:27 10° NW 02:33:18 51° WSW 02:39:12 10° S visible
31 Oct - 13:17:59 10° SSE 13:21:28 24° ESE 13:24:53 10° ENE daylight
31 Oct - 15:01:59 10° W 15:03:45 12° WNW 15:05:32 10° NW daylight
01 Nov - 01:45:32 10° NNW 01:51:34 84° ENE 01:57:41 10° SSE night (unlit)
01 Nov - 14:18:20 10° SW 14:22:02 28° WNW 14:25:44 10° N daylight
02 Nov - 01:04:10 10° N 01:09:51 44° ENE 01:15:37 10° SE night (unlit)
02 Nov - 02:48:42 10° WNW 02:52:20 16° WSW 02:55:58 10° SSW night (unlit)
02 Nov - 13:36:04 10° SSW 13:40:21 71° WNW 13:44:35 10° NNE daylight
03 Nov - 00:23:30 10° NNE 00:28:08 23° ENE 00:32:48 10° ESE night (unlit)
03 Nov - 02:05:17 10° NW 02:10:34 31° WSW 02:15:53 10° S night (unlit)
03 Nov - 12:54:31 10° S 12:58:39 45° ESE 13:02:43 10° NE daylight
03 Nov - 23:44:39 10° NE 23:46:22 11° ENE 23:48:05 10° E night (unlit)
04 Nov - 01:22:52 10° NNW 01:28:50 60° WSW 01:34:50 10° S night (unlit)
04 Nov - 12:13:49 10° SSE 12:16:55 19° ESE 12:20:00 10° ENE daylight
04 Nov - 13:56:42 10° WSW 13:59:13 15° WNW 14:01:44 10° NNW daylight
05 Nov - 00:41:04 10° NNW 00:47:06 72° ENE 00:53:10 10° SSE night (unlit)
05 Nov - 13:13:35 10° SW 13:17:30 35° WNW 13:21:25 10° N daylight
05 Nov - 23:59:50 10° N 00:05:22 37° ENE 00:10:56 10° SE night (unlit)
06 Nov - 01:43:39 10° WNW 01:47:49 19° WSW 01:52:01 10° SSW night (unlit)
06 Nov - 12:31:30 10° SSW 12:35:48 89° WNW 12:40:04 10° NNE daylight
06 Nov - 23:19:24 10° NNE 23:23:37 20° ENE 23:27:51 10° ESE night (unlit)
07 Nov - 01:00:33 10° NW 01:06:04 37° WSW 01:11:36 10° S night (unlit)
07 Nov - 11:50:07 10° S 11:54:05 36° ESE 11:58:01 10° NE daylight
08 Nov - 00:18:17 10° NNW 00:24:19 71° WSW 00:30:22 10° SSE night (unlit)
08 Nov - 11:09:44 10° SSE 11:12:21 16° ESE 11:14:56 10° ENE daylight
08 Nov - 12:51:38 10° WSW 12:54:38 19° WNW 12:57:40 10° NNW daylight
08 Nov - 23:36:36 10° N 23:42:35 62° ENE 23:48:35 10° SSE night (unlit)
09 Nov - 01:23:31 10° W 01:25:04 11° WSW 01:26:38 10° SW night (unlit)
09 Nov - 12:08:50 10° SW 12:12:55 44° WNW 12:17:00 10° N daylight
09 Nov - 22:55:31 10° N 23:00:50 32° ENE 23:06:10 10° SE night (unlit)
